Weather History for Milano / Linate, Italy

Change the Weather History Date:

Sunday, September 8, 2013

  Actual Average Record
Temperature  
Mean Temperature 73 °F -  
Max Temperature 78 °F 73 °F - ()
Min Temperature 68 °F 54 °F - ()
Cooling Degree Days 8    
Growing Degree Days 23 (Base 50)    
Moisture  
Dew Point 65 °F    
Average Humidity 76    
Maximum Humidity 88    
Minimum Humidity 57    
Precipitation  
Precipitation 0.00 in 0.10 in - ()
Sea Level Pressure  
Sea Level Pressure 30.05 in    
Wind  
Wind Speed 5 mph ()    
Max Wind Speed 14 mph    
Max Gust Speed -    
Visibility 6.2 miles    
Events Rain    
T = Trace of Precipitation, MM = Missing Value Source: Averaged Metar Reports

Daily Weather History Graph

Daily Weather History Graph

Search for Another Location

Airport:

Trip Planner

Search our weather history database for the weather conditions in past years. The results will help you decide how hot, cold, wet, or windy it might be!

Date:

Astronomy

Sep. 08, 2013 Rise Set
Actual Time 6:52 AM CEST 7:47 PM CEST
Civil Twilight 6:22 AM CEST 8:17 PM CEST
Nautical Twilight 5:46 AM CEST 8:53 PM CEST
Astronomical Twilight 5:09 AM CEST 9:30 PM CEST
Moon 10:04 AM CEST (9/8) 8:59 PM CEST (9/8)
Length of Visible Light 13h 54m
Length of Day
12h 54m
Waxing Crescent, 9% of the Moon is Illuminated
Sep 8
Waxing Crescent
Sep 12
First Quarter
Sep 19
Full
Sep 27
Last Quarter
Oct 5
New

Hourly Weather History & Observations

Time (CEST) Temp. Dew Point Humidity Pressure Visibility Wind Dir Wind Speed Gust Speed Precip Events Conditions
12:20 AM 75.2 °F 64.4 °F 69% 30.04 in 6.2 mi ENE 5.8 mph - N/A   Scattered Clouds
12:50 AM 73.4 °F 64.4 °F 73% 30.06 in 6.2 mi East 4.6 mph - N/A   Scattered Clouds
1:20 AM 73.4 °F 64.4 °F 73% 30.06 in 6.2 mi ESE 3.5 mph - N/A   Scattered Clouds
1:50 AM 73.4 °F 64.4 °F 73% 30.06 in 6.2 mi ESE 3.5 mph - N/A   Partly Cloudy
2:20 AM 69.8 °F 64.4 °F 83% 30.06 in 6.2 mi Variable 1.2 mph - N/A   Partly Cloudy
2:50 AM 71.6 °F 64.4 °F 78% 30.06 in - SSE 3.5 mph - N/A   Clear
3:20 AM 71.6 °F 64.4 °F 78% 30.06 in - Variable 2.3 mph - N/A   Clear
3:50 AM 71.6 °F 64.4 °F 78% 30.06 in 6.2 mi Variable 2.3 mph - N/A   Scattered Clouds
4:20 AM 69.8 °F 64.4 °F 83% 30.06 in 6.2 mi Variable 2.3 mph - N/A   Scattered Clouds
4:50 AM 71.6 °F 62.6 °F 73% 30.06 in 6.2 mi ESE 3.5 mph - N/A   Mostly Cloudy
5:20 AM 69.8 °F 62.6 °F 78% 30.04 in 6.2 mi ESE 6.9 mph - N/A   Mostly Cloudy
5:50 AM 69.8 °F 62.6 °F 78% 30.04 in 6.2 mi East 4.6 mph - N/A   Mostly Cloudy
6:20 AM 69.8 °F 62.6 °F 78% 30.04 in 6.2 mi East 4.6 mph - N/A   Mostly Cloudy
6:50 AM 68.0 °F 62.6 °F 83% 30.04 in 6.2 mi East 5.8 mph - N/A   Scattered Clouds
7:20 AM 68.0 °F 62.6 °F 83% 30.04 in 6.2 mi Variable 2.3 mph - N/A   Scattered Clouds
7:50 AM 68.0 °F 62.6 °F 83% 30.04 in 6.2 mi NE 3.5 mph - N/A   Partly Cloudy
8:20 AM 69.8 °F 64.4 °F 83% 30.06 in 6.2 mi East 4.6 mph - N/A   Mostly Cloudy
8:50 AM 71.6 °F 64.4 °F 78% 30.06 in 6.2 mi East 4.6 mph - N/A   Mostly Cloudy
9:20 AM 71.6 °F 66.2 °F 83% 30.09 in 6.2 mi East 5.8 mph - N/A   Mostly Cloudy
9:50 AM 71.6 °F 66.2 °F 83% 30.09 in 6.2 mi East 9.2 mph - N/A   Mostly Cloudy
10:20 AM 71.6 °F 66.2 °F 83% 30.09 in 6.2 mi East 6.9 mph - N/A   Mostly Cloudy
10:50 AM 73.4 °F 68.0 °F 83% 30.09 in 6.2 mi East 5.8 mph - N/A   Mostly Cloudy
11:20 AM 75.2 °F 68.0 °F 78% 30.09 in 6.2 mi East 8.1 mph - N/A   Mostly Cloudy
11:50 AM 75.2 °F 68.0 °F 78% 30.09 in 6.2 mi ESE 6.9 mph - N/A   Scattered Clouds
12:20 PM 75.2 °F 68.0 °F 78% 30.09 in 6.2 mi East 8.1 mph - N/A Rain Light Rain
12:50 PM 75.2 °F 68.0 °F 78% 30.09 in 6.2 mi ESE 6.9 mph - N/A   Mostly Cloudy
1:20 PM 75.2 °F 68.0 °F 78% 30.09 in 6.2 mi ESE 6.9 mph - N/A   Mostly Cloudy
1:50 PM 75.2 °F 68.0 °F 78% 30.09 in 6.2 mi ESE 8.1 mph - N/A   Mostly Cloudy
2:20 PM 77.0 °F 68.0 °F 74% 30.06 in 6.2 mi ESE 6.9 mph - N/A   Mostly Cloudy
2:50 PM 77.0 °F 68.0 °F 74% 30.06 in 6.2 mi ESE 9.2 mph - N/A   Mostly Cloudy
3:20 PM 77.0 °F 68.0 °F 74% 30.06 in 6.2 mi ESE 9.2 mph - N/A   Mostly Cloudy
3:50 PM 78.8 °F 68.0 °F 69% 30.04 in 6.2 mi East 9.2 mph - N/A   Scattered Clouds
4:20 PM 77.0 °F 68.0 °F 74% 30.04 in 6.2 mi East 9.2 mph - N/A   Scattered Clouds
4:50 PM 77.0 °F 66.2 °F 69% 30.04 in 6.2 mi East 10.4 mph - N/A   Mostly Cloudy
5:20 PM 78.8 °F 62.6 °F 57% 30.01 in 6.2 mi SE 13.8 mph - N/A   Scattered Clouds
5:50 PM 78.8 °F 62.6 °F 57% 30.01 in 6.2 mi SE 10.4 mph - N/A   Scattered Clouds
6:20 PM 77.0 °F 62.6 °F 61% 30.01 in 6.2 mi SE 9.2 mph - N/A   Mostly Cloudy
6:50 PM 77.0 °F 64.4 °F 65% 30.01 in 6.2 mi ESE 11.5 mph - N/A   Scattered Clouds
7:20 PM 77.0 °F 64.4 °F 65% 30.01 in 6.2 mi ESE 8.1 mph - N/A   Scattered Clouds
7:50 PM 75.2 °F 66.2 °F 73% 30.01 in 6.2 mi East 9.2 mph - N/A   Mostly Cloudy
8:20 PM 73.4 °F 64.4 °F 73% 30.01 in 6.2 mi East 5.8 mph - N/A   Mostly Cloudy
8:50 PM 73.4 °F 64.4 °F 73% 30.01 in 6.2 mi East 3.5 mph - N/A   Mostly Cloudy
9:20 PM 73.4 °F 66.2 °F 78% 30.01 in 6.2 mi East 4.6 mph - N/A   Mostly Cloudy
9:50 PM 71.6 °F 66.2 °F 83% 30.01 in 6.2 mi Calm Calm - N/A   Mostly Cloudy
10:20 PM 71.6 °F 66.2 °F 83% 30.01 in 6.2 mi SE 4.6 mph - N/A   Mostly Cloudy
10:50 PM 71.6 °F 66.2 °F 83% 30.01 in 6.2 mi ENE 3.5 mph - N/A   Mostly Cloudy
11:20 PM 69.8 °F 66.2 °F 88% 30.01 in 6.2 mi Calm Calm - N/A   Scattered Clouds
11:50 PM 69.8 °F 66.2 °F 88% 30.01 in 6.2 mi Variable 1.2 mph - N/A   Scattered Clouds